Simultaneous Nadir Overpasses (SNOs) Predictions

Prediction of SNOs between AQUA and NOAA-19 Satellite Orbit:

Table of predicted SNOs for the next 14.0 days since TLE Epoch: 2/1/2025
Index Date (AQUA) Time (AQUA) Lat,Lon (AQUA) SZA (AQUA ) Date (NOAA-19) Time (NOAA-19) Lat,Lon (NOAA-19) SZA (NOAA-19 ) Distance(km) Time Diff (sec)
1 02/02/2025 12:55:10 -75.59, 168.94 87.85 02/02/2025 12:54:02 -75.59, 168.85 87.85 2.54 68
2 02/02/2025 13:44:31 75.63, -23.53 92.19 02/02/2025 13:44:53 75.65, -23.67 92.20 3.95 22
3 02/04/2025 15:52:53 -75.64, 124.40 88.43 02/04/2025 15:52:26 -75.65, 124.50 88.42 3.05 27
4 02/04/2025 16:42:14 75.70, -68.10 91.62 02/04/2025 16:43:17 75.71, -68.00 91.64 3.19 63
5 02/06/2025 18:01:05 75.14, -86.21 90.43 02/06/2025 17:59:59 75.09, -89.08 90.40 82.37 66
6 02/06/2025 18:50:34 -75.67, 79.94 89.05 02/06/2025 18:50:51 -75.66, 79.97 89.06 1.75 17
7 02/08/2025 20:58:54 75.64,-132.00 90.26 02/08/2025 20:58:12 75.65,-131.85 90.27 4.14 42
8 02/08/2025 21:48:13 -75.67, 35.58 89.72 02/08/2025 21:49:15 -75.70, 35.56 89.69 3.16 62
9 02/10/2025 23:07:02 -75.15, 17.38 90.91 02/10/2025 23:05:56 -75.10, 14.54 90.95 81.21 66
10 02/10/2025 23:56:32 75.67,-176.43 89.60 02/10/2025 23:56:37 75.65,-176.42 89.58 2.41 5
11 02/13/2025 02:04:48 -75.64, -28.36 91.13 02/13/2025 02:04:09 -75.62, -28.33 91.14 1.64 39
12 02/13/2025 02:54:08 75.66, 139.23 88.89 02/13/2025 02:55:01 75.68, 139.14 88.91 3.07 53



Historial Predications of SNOs between AQUA and NOAA-19
